Location: Newark
(35.9031°N, 139.7175°E)
Time: 12:53:58
(UTC+00:00)

Transit 2A - Pass Details

Date: 29 May 2020
Orbit: 592 x 967 km, 66.7° (Epoch: 06 July)

Event Time Altitude Azimuth Distance (km) Brightness Sun altitude
Rises 15:13:33 0° 310° (NW) 3,620 9.9 -31.8°
Reaches altitude 10° 15:17:29 10° 286° (WNW) 2,698 8.8 -31.6°
Enters shadow 15:18:08 11° 281° (W) 2,599 8.7 -31.6°
